SCP
0 0 0 0 0 0 0 0 0 0 0 0 0 0 0 0 0 0 0 0 0 0 0 0 0 0 0 0 0 0 0 0 0 0 0 0 0 0
0 0 0 0 0 0 0 0 0 0 0 0 0 0 0 0 0 0 0 0 0 0 0 0 0 0 0 0 0 0 0 0 0 0 0 0 0 0
0 0 0 0 0 0 0 0 0 0 0 0 0 0 0 0 0 0 0 0 0 0 0 0 0 0 0 0 0 0 0 0 0 0 0 0 0 0
0 0 0 0 0 0 0 0 0 0 0 0 0 0 0 0 0 0 0 0 0 0 0 0 0 0 0 0 0 0 0 0 0 0 0 0 0 0
0 0 0 0 0 0 0 0 0 0 0 0 0 0 0 0 0 0 0 0 0 0 0 0 0 0 0 0 0 0 0 0 0 0 0 0 0 0
0 0 0 0 0 0 0 0 0 0 0 0 0 0 0 0 0 0 0 0 0 0 0 0 0 0 0 0 0 0 0 0 0 0 0 0 0 0
0 0 0 0 0 0 0 0 0 0 0 0 0 0 0 0 0 0 0 0 0 0 0 0 0 0 0 0 0 0 0 0 0 0 0 0 0 0
0 0 0 0 0 0 0 0 0 0 0 0 0 0 0 0 0 0 0 0 0 0 0 0 0 0 0 0 0 0 0 0 0 0 0 0 0 0
0 0 0 0 0 0 0 0 0 0 0 0 0 0 0 0 0 0 0 0 0 0 0 0 0 0 0 0 0 0 0 0 0 0 0 0 0 0
0 0 0 0 0 0 0 0 0 0 0 0 0 0 0 0 0 0 0 0 0 0 0 0 0 0 0 0 0 0 0 0 0 0 0 0 0 0
0 0 0 0 0 0 0 0 0 0 0 0 0 0 0 0 0 0 0 0 0 0 0 0 0 0 0 0 0 0 0 0 0 0 0 0 0 0
0 0 0 0 0 0 0 0 0 0 0 0 0 0 0 0 0 0 0 0 0 0 0 0 0 0 0 0 0 0 0 0 0 0 0 0 0 0
0 0 0 0 0 0 0 0 0 0 0 0 0 0 0 0 0 0 0 0 0 0 0 0 0 0 0 0 0 0 0 0 0 0 0 0 0 0
0 0 0 0 0 0 0 0 0 0 0 0 0 0 0 0 0 0 0 0 0 0 0 0 0 0 0 0 0 0 0 0 0 0 0 0 0 0
0 0 0 0 0 0 0 0 0 0 0 0 0 0 0 0 0 0 0 0 0 0 0 0 0 0 0 0 0 0 0 0 0 0 0 0 0 0
0 0 0 0 0 0 0 0 0 0 0 0 0 0 0 0 0 0 0 0 0 0 0 0 0 0 0 0 0 0 0 0 0 0 0 0 0 0
0 0 0 0 0 0 0 0 0 0 0 0 0 0 0 0 0 0 0 0 0 0 0 0 0 0 0 0 0 0 0 0 0 0 0 0 0 0
0 0 0 0 0 0 0 0 0 0 0 0 0 0 0 0 0 0 0 0 0 0 0 0 0 0 0 0 0 0 0 0 0 0 0 0 0 0
0 0 0 0 0 0 0 0 0 0 0 0 0 0 0 0 0 0 0 0 0 0 0 0 0 0 0 0 0 0 0 0 0 0 0 0 0 0
0 0 0 0 0 0 0 0 0 0 0 0 0 0 0 0 0 0 0 0 0 0 0 0 0 0 0 0 0 0 0 0 0 0 0 0 0 0
0 0 0 0 0 0 0 0 0 0 0 0 0 0 0 0 0 0 0 0 0 0 0 0 0 0 0 0 0 0 0 0 0 0 0 0 0 0
0 0 0 0 0 0 0 0 0 0 0 0 0 0 0 0 0 0 0 0 0 0 0 0 0 0 0 0 0 0 0 0 0 0 0 0 0 0
0 0 0 0 0 0 0 0 0 0 0 0 0 0 0 0 0 0 0 0 0 0 0 0 0 0 0 0 0 0 0 0 0 0 0 0 0 0
Wind_Speed
1 1 1 1 1 0 1 2 2 1 1 1 0 1 1 2 4 3 2 4 4 4 3 3 2 2 2 2 2 2 3 3 3 4 4 4 5 5
1 2 1 1 1 0 1 1 2 2 1 1 0 1 1 2 4 2 3 5 4 4 3 3 3 3 3 2 2 2 2 2 2 2 2 3 3 3
1 1 1 1 1 1 1 1 1 2 1 1 0 1 2 1 1 1 2 2 2 3 4 4 4 3 3 3 3 2 2 2 2 1 1 1 1 2
1 1 1 0 1 0 1 1 1 1 2 1 1 0 1 1 2 1 1 2 2 3 3 4 5 5 4 4 4 3 3 3 2 2 2 1 1 0
1 1 1 1 1 1 1 1 1 1 1 1 1 0 0 1 1 1 0 0 1 2 3 3 5 5 5 4 4 4 4 3 3 3 2 2 2 2
1 2 1 2 2 1 1 1 1 1 1 1 1 1 1 1 1 1 0 1 1 1 1 2 4 5 5 5 5 5 4 4 4 3 3 3 3 3
2 2 1 1 1 1 1 1 1 1 1 1 1 1 1 1 1 1 1 1 1 1 1 1 2 2 3 4 5 6 6 6 5 4 4 4 4 4
1 1 1 2 1 2 2 2 2 2 2 2 2 2 3 2 2 1 1 1 2 2 1 1 2 2 3 3 5 7 7 7 6 5 5 5 5 5
1 1 1 1 1 2 3 3 3 4 4 3 3 4 4 3 3 2 2 2 3 2 1 2 2 3 3 4 7 9 9 8 7 6 6 6 6 6
1 1 1 1 1 1 1 1 3 3 4 3 4 4 3 3 4 4 4 3 2 2 1 2 2 3 3 2 6 8 8 8 7 7 7 6 6 6
1 1 1 1 1 2 0 1 2 3 5 5 5 5 4 3 2 1 1 2 2 2 1 2 2 2 2 2 3 7 8 8 8 7 7 7 7 6
1 1 1 1 1 1 1 2 3 3 3 2 3 3 3 3 2 3 3 3 2 2 2 2 2 1 2 2 2 2 4 6 7 8 7 7 6 4
2 2 1 1 1 2 1 2 4 3 2 2 2 2 2 2 3 3 3 3 3 3 2 2 2 1 2 2 2 2 2 2 3 4 6 7 7 5
2 1 1 1 2 2 2 3 4 3 2 2 2 2 2 3 3 4 4 4 4 4 3 2 2 2 2 1 2 2 2 2 3 3 3 5 6 7
1 3 3 3 3 3 3 4 3 2 1 2 2 2 2 2 2 2 3 3 3 3 2 3 2 2 2 2 2 2 2 2 3 3 3 3 4 3
2 3 4 4 3 3 3 2 2 2 2 3 2 2 2 1 1 2 2 2 2 3 3 3 3 3 3 3 2 2 2 2 2 3 3 3 3 3
1 1 1 1 1 1 1 1 1 1 2 2 2 2 2 2 2 2 1 2 2 3 3 2 2 2 3 3 2 3 2 2 2 2 2 3 4 4
1 1 1 2 2 2 1 1 1 1 2 2 2 2 2 2 2 1 1 1 2 3 2 2 0 1 2 2 2 2 2 2 2 2 2 3 4 4
1 1 2 2 2 2 1 1 1 2 1 1 2 2 2 2 1 1 1 1 2 2 2 2 1 2 3 4 4 3 3 3 2 2 3 3 4 4
2 2 2 2 2 1 1 1 1 1 1 1 2 2 2 2 2 1 1 2 2 2 2 2 2 3 5 5 3 4 5 4 3 3 3 2 2 2
2 2 2 2 1 1 1 1 1 2 2 2 2 2 2 2 2 2 2 3 2 2 3 3 4 5 3 2 2 3 3 4 3 3 3 2 2 2
2 1 1 1 1 1 1 1 2 2 2 2 2 2 2 2 2 2 2 2 2 3 3 3 2 1 2 3 4 4 3 3 3 4 3 3 3 4
2 1 1 1 1 1 1 2 2 2 2 2 2 2 2 2 2 2 2 2 2 2 2 2 2 1 2 3 4 3 4 3 2 2 3 5 5 5
Wind_Direction
243 252 237 250 260 218 144 138 138 163 277 259 256 193 128 119 146 146 142 145 150 144 142 134 131 135 124 108 105 104 96 86 77 74 65 56 52 53
224 232 238 231 229 184 206 182 145 157 218 262 240 184 138 130 142 148 145 152 158 162 170 172 169 160 153 143 142 128 116 103 102 100 83 61 52 50
242 223 241 235 192 197 196 171 167 138 163 279 294 115 118 110 104 140 137 148 161 176 187 191 189 184 183 178 175 168 159 154 149 149 145 91 60 51
232 237 251 198 146 182 178 194 207 185 164 205 262 110 144 164 154 167 162 166 173 190 203 205 194 188 190 190 186 185 185 185 187 192 199 215 245 288
235 231 227 179 193 197 171 196 221 206 158 156 218 217 187 172 136 167 205 241 215 188 199 194 183 183 190 188 190 195 196 195 198 203 210 225 246 261
244 241 206 193 195 182 178 197 203 188 194 175 194 202 193 225 143 159 291 289 280 262 190 170 173 189 198 196 198 201 202 206 210 213 221 229 243 253
235 221 204 132 108 163 170 189 201 198 202 199 200 186 207 187 194 203 210 260 269 249 186 194 165 175 197 209 212 212 210 212 213 215 223 229 234 243
281 236 212 181 192 187 191 184 181 199 209 206 204 207 218 210 203 204 189 213 271 266 184 228 180 197 208 203 209 209 209 210 212 215 222 228 233 240
295 304 294 273 200 205 224 219 218 232 222 209 214 224 218 209 196 207 213 211 228 244 195 234 215 214 220 220 209 208 206 208 212 216 223 230 232 235
315 316 299 300 324 7 264 236 234 233 230 220 223 232 228 218 204 207 216 220 232 250 192 221 231 231 228 221 215 206 206 210 214 216 223 228 230 234
309 331 320 279 346 23 345 272 272 270 250 232 226 240 254 248 226 181 214 207 239 252 227 208 240 244 245 229 225 213 208 211 214 218 226 230 232 233
301 295 318 340 13 12 247 250 261 268 290 275 253 254 251 249 241 199 196 210 219 240 236 201 233 218 269 258 220 212 214 220 219 221 226 229 226 218
312 308 309 310 302 311 303 254 259 274 264 258 251 239 239 236 232 223 209 204 209 229 229 189 220 223 215 264 269 223 201 209 213 226 225 224 217 205
282 295 295 304 294 290 282 284 291 301 281 266 260 245 238 238 234 228 225 220 214 216 218 185 198 212 217 248 265 258 230 211 202 213 217 224 224 224
275 300 304 301 294 272 270 280 281 269 263 260 256 247 240 249 252 247 237 234 239 245 230 199 194 207 200 216 240 242 251 241 213 207 209 207 210 211
300 304 303 295 289 281 281 275 262 253 242 247 253 253 260 263 253 243 241 240 249 265 259 224 207 200 217 228 225 246 234 227 224 217 209 216 217 213
320 305 302 305 303 293 293 282 268 288 276 270 261 262 262 261 260 255 233 229 230 248 264 266 229 209 214 209 227 238 236 245 231 216 211 225 230 224
304 259 269 270 265 271 277 285 284 276 277 276 270 272 273 272 275 280 281 233 232 241 241 246 278 332 329 295 225 228 233 233 241 231 222 226 244 237
249 247 258 270 272 268 268 267 272 283 287 280 273 276 284 291 293 290 283 267 254 248 248 236 208 194 237 264 276 238 238 245 231 232 229 225 239 242
217 231 244 253 260 265 276 284 285 298 303 288 276 274 272 276 277 275 263 262 260 260 256 249 229 216 224 237 252 271 247 232 222 232 237 240 251 262
241 239 243 249 259 267 276 278 275 275 282 277 271 271 264 260 261 259 252 269 267 259 257 248 243 246 240 230 257 270 270 243 241 233 226 229 250 253
257 252 246 254 263 261 266 278 279 278 277 272 274 276 278 263 249 248 249 253 257 258 262 271 274 253 223 230 247 259 273 281 278 297 278 236 210 215
267 258 249 246 259 272 271 272 273 277 281 287 294 290 280 274 273 259 250 247 254 264 275 286 292 270 254 245 247 255 261 265 267 282 290 292 273 257